Regional Weather Roundup
Issued by NWS

Home | Current Version | Previous Version | Text Only | Print | Product List | Glossary Off
Versions: 1 2 3 4 5 6 7 8 9 10 11 12 13 14 15 16 17 18 19 20 21 22 23 24 25 26 27 28 29 30 31 32 33 34 35 36 37 38 39 40 41 42 43 44 45 46 47 48 49 50

000
ASUS43 KDMX 272201
RWRIA

WEATHER ROUNDUP FOR IOWA
NATIONAL WEATHER SERVICE DES MOINES IA
500 PM CDT MON MAR 27 2017

NOTE: "FAIR" INDICATES FEW OR NO CLOUDS BELOW 12,000 FEET WITH NO
SIGNIFICANT WEATHER AND/OR OBSTRUCTIONS TO VISIBILITY.

* - THESE STATIONS ARE NOT NWS STATIONS...THUS NOT UNDER NWS
QUALITY CONTROL.  THEY ALSO DO NOT REPORT WEATHER SUCH
AS PRECIPITATION OR FOG.

IAZ001>003-012>014-020>022-031>034-043>046-272300-
   NORTHWEST IOWA

CITY           SKY/WX    TMP DP  RH WIND       PRES   REMARKS
CARROLL *      CLOUDY    50  43  76 NE12      29.93F
CHEROKEE *     CLOUDY    48  40  73 E5        29.96S
DENISON *      CLOUDY    50  39  66 VRB5      29.96S
LE MARS *      PTSUNNY   54  41  62 NE7G13    29.95F
ORANGE CITY *  MOSUNNY   52  41  66 E8        29.95S
SHELDON *      PTSUNNY   50  39  66 E9        29.93F
SIOUX CITY     MOSUNNY   57  40  52 E8        29.93F
SPENCER        CLOUDY    50  39  66 N9        29.96S
STORM LAKE *     N/A     48  39  71 N9        29.95S
$$

IAZ055>058-069>071-079>083-090>094-272300-
   SOUTHWEST IOWA

CITY           SKY/WX    TMP DP  RH WIND       PRES   REMARKS
ATLANTIC *     CLOUDY    52  43  71 N10       29.94R
AUDUBON *      CLOUDY    50  43  76 N8        29.95S
CLARINDA *     CLOUDY    50  43  76 NE7       29.96S
COUNCIL BLFS *   N/A     50  43  76 N5        29.95S
CRESTON *      CLOUDY    48  43  81 NE8       29.94S
HARLAN  *      CLOUDY    50  43  76 N8        29.98S
LAMONI         CLOUDY    51  44  77 N9        29.91F
RED OAK *      CLOUDY    50  43  76 N6        29.95R
SHENANDOAH *   CLOUDY    50  43  76 N7        29.96S
$$

IAZ047>049-059>061-072>074-084-272300-
   CENTRAL IOWA

CITY           SKY/WX    TMP DP  RH WIND       PRES   REMARKS
AMES           CLOUDY    51  42  71 N7        29.94F
ANKENY *       CLOUDY    50  43  76 N7        29.95S
BOONE *        CLOUDY    48  41  76 N9G15     29.93F
CHARITON *     CLOUDY    48  45  87 N10       29.92F
DES MOINES     CLOUDY    51  42  71 N7        29.93F
GRINNELL*      CLOUDY    48  44  83 N7        29.95S
MARSHALLTOWN   CLOUDY    49  43  80 NW3       29.93F
NEWTON *       CLOUDY    48  43  81 N7        29.93S
PELLA *        CLOUDY    49  45  84 N7        29.94S
PERRY *        CLOUDY    48  41  77 N9        29.94F
$$

IAZ004>006-015-016-023>025-035-036-272300-
   NORTH CENTRAL IOWA

CITY           SKY/WX    TMP DP  RH WIND       PRES   REMARKS
ALGONA *       CLOUDY    50  43  76 N8        29.95F
CLARION *      CLOUDY    48  45  87 CALM      29.95S
ESTHERVILLE    CLOUDY    49  41  74 NE6       29.95F
FORT DODGE *   CLOUDY    48  39  71 N8        29.96S
MASON CITY     CLOUDY    47  39  74 N7        29.96S
FOREST CITY *  CLOUDY    46  39  76 N10       29.95S
WEBSTER CITY * CLOUDY    48  41  76 N5        29.93S
IOWA FALLS *   CLOUDY    49  42  79 N7        29.95S
$$

IAZ007>011-017>019-026>030-037>042-050>054-066-272300-
   NORTHEAST IOWA

CITY           SKY/WX    TMP DP  RH WIND       PRES   REMARKS
CEDAR RAPIDS   CLOUDY    50  46  86 N8        29.91S
CHARLES CITY * CLOUDY    46  45  93 NW9       29.95R
CLINTON *      CLOUDY    50  47  89 N9        29.91S
DECORAH *      CLOUDY    46  43  87 N6        29.92F
DUBUQUE        CLOUDY    49  44  83 NE8       29.91F
MONTICELLO *   CLOUDY    52  45  76 N7        29.91S
OELWEIN *      CLOUDY    50  45  81 N10       29.93S
WATERLOO       CLOUDY    50  41  71 NW10      29.93S
$$

IAZ064-065-067-068-078-272300-
   EAST CENTRAL IOWA

CITY           SKY/WX    TMP DP  RH WIND       PRES   REMARKS
DAVENPORT      CLOUDY    51  46  83 NE7       29.91S
IOWA CITY      CLOUDY    53  45  74 N6        29.93S
MUSCATINE *    CLOUDY    54  46  76 N6        29.91S
QUAD CITIES    CLOUDY    53  46  77 N6        29.89F
$$

IAZ062-063-075>077-085>089-095>099-272300-
   SOUTHEAST IOWA

CITY           SKY/WX    TMP DP  RH WIND       PRES   REMARKS
BURLINGTON     CLOUDY    52  49  89 N10       29.89R
FAIRFIELD *    CLOUDY    50  46  87 N9        29.91S FOG
FORT MADISON * CLOUDY    52  50  93 N8        29.90S
KEOKUK *       CLOUDY    54  50  87 N12       29.88S
OSKALOOSA *    CLOUDY    49  45  87 N10       29.92F
OTTUMWA        CLOUDY    50  47  89 NW12      29.92S
WASHINGTON *   CLOUDY    52  48  87 N10       29.92S
$$

ABBREVIATIONS USED IN REMARKS
   TC - TEMPERATURES IN CELSIUS
  WCI - WIND CHILL INDEX
   HX - HEAT INDEX
  VSB - VISIBILITY
$$





USA.gov is the U.S. government's official web portal to all federal, state and local government web resources and services.